time_stamp(utc),avg(mph),gust(mph),direction(deg),12m_air_temp(f),sonic_u(cm/s),sonic_v(cm/s),sonic_w(cm/s),pressure,2m_air_temp(f),pyranometer(W/m^2)
"2019-10-13 00:03:15+00",4.3,5.3,,62.2,-130,-144,7,1014.6,61.6,0
"2019-10-13 00:08:15+00",3.9,3.9,,62.2,-118,-133,6,1014.58,61.5,0
"2019-10-13 00:13:15+00",4.5,5.5,,62.2,-140,-146,4,1014.56,61.5,0
"2019-10-13 00:18:15+00",4.9,5.9,,62.2,-156,-153,3,1014.63,61.4,0
"2019-10-13 00:23:15+00",6.1,7.1,,62.3,-192,-167,6,1014.7,61.4,0
"2019-10-13 00:28:15+00",6.1,6.1,,62.3,-211,-150,9,1014.66,61.5,0
"2019-10-13 00:33:15+00",5.6,6.6,,62.4,-230,-121,15,1014.65,61.5,0
"2019-10-13 00:38:15+00",6.2,7.2,,62.5,-254,-126,18,1014.74,61.5,0
"2019-10-13 00:43:15+00",5.6,6.6,,62.5,-233,-118,8,1014.78,61.6,0
"2019-10-13 00:48:15+00",5.3,5.3,,62.6,-226,-96,14,1014.86,61.6,0
"2019-10-13 00:53:15+00",5.4,6.4,,62.7,-217,-75,12,1014.88,61.6,0
"2019-10-13 00:58:15+00",7.4,8.4,,62.9,-308,-49,13,1015.02,61.6,0
"2019-10-13 01:03:15+00",7.9,8.9,,63,-333,-47,11,1015.05,61.6,0
"2019-10-13 01:08:15+00",6.8,7.8,,62.9,-289,-36,6,1015.03,61.6,0
"2019-10-13 01:13:15+00",7.1,7.1,,62.8,-313,9,10,1015,61.7,0
"2019-10-13 01:18:15+00",6.4,6.4,,62.8,-278,-6,11,1015.03,61.7,0
"2019-10-13 01:23:15+00",5.2,5.2,,62.7,-223,17,10,1015.08,61.7,0
"2019-10-13 01:28:15+00",4.4,4.4,,62.6,-192,20,10,1015.1,61.7,0
"2019-10-13 01:33:15+00",6.1,7.1,,62.6,-262,-3,8,1015.18,61.8,0
"2019-10-13 01:38:15+00",7.9,8.9,,62.8,-347,7,16,1015.2,61.7,0
"2019-10-13 01:43:15+00",7.7,8.7,,63,-338,13,19,1015.24,61.6,0
"2019-10-13 01:48:15+00",10.2,11.2,,63,-453,-2,16,1015.37,61.7,0
"2019-10-13 01:53:15+00",8.4,9.4,,62.8,-369,11,14,1015.42,61.7,0
"2019-10-13 01:58:15+00",8.1,9.1,,62.6,-361,40,23,1015.4,61.7,0
"2019-10-13 02:03:15+00",9.5,10.5,,62.5,-409,120,26,1015.39,61.6,0
"2019-10-13 02:08:15+00",9.0,10.0,,62.2,-391,107,28,1015.41,61.5,0
"2019-10-13 02:13:15+00",8.7,9.7,,62.1,-369,141,24,1015.53,61.5,0
"2019-10-13 02:18:15+00",8.8,9.8,,62,-357,150,24,1015.49,61.3,0
"2019-10-13 02:23:15+00",10.4,12.4,,61.9,-410,228,18,1015.43,61.2,0
"2019-10-13 02:28:15+00",10.9,12.9,,62.1,-396,276,31,1015.41,61.1,0
"2019-10-13 02:33:15+00",11.9,13.9,,62.1,-445,287,37,1015.42,61.1,0
"2019-10-13 02:38:15+00",11.9,12.9,,62.1,-443,300,30,1015.41,61,0
"2019-10-13 02:43:15+00",11.2,12.2,,61.9,-418,264,32,1015.42,60.9,0
"2019-10-13 02:48:15+00",11.8,13.8,,61.6,-445,288,36,1015.44,60.8,0
"2019-10-13 02:53:15+00",11.3,12.3,,61.5,-421,291,35,1015.47,60.7,0
"2019-10-13 02:58:15+00",10.4,11.4,,61.4,-387,270,30,1015.43,60.5,0
"2019-10-13 03:03:15+00",10.9,11.9,,61.4,-388,304,35,1015.42,60.4,0
"2019-10-13 03:08:15+00",9.2,10.2,,61.1,-318,263,31,1015.44,60.3,0
"2019-10-13 03:13:15+00",10.2,11.2,,61.1,-348,294,31,1015.42,60.1,0
"2019-10-13 03:18:15+00",9.5,10.5,,61,-332,259,30,1015.38,60.1,0
"2019-10-13 03:23:15+00",9.2,10.2,,60.9,-318,243,32,1015.46,60,0
"2019-10-13 03:28:15+00",7.5,8.5,,60.8,-251,211,21,1015.37,59.9,0
"2019-10-13 03:33:15+00",7.6,8.6,,60.7,-284,196,23,1015.35,59.7,0
"2019-10-13 03:38:15+00",8.4,9.4,,60.8,-327,182,23,1015.39,59.5,0
"2019-10-13 03:43:15+00",7.9,8.9,,60.7,-310,163,21,1015.42,59.4,0
"2019-10-13 03:48:15+00",7.8,8.8,,60.5,-308,161,21,1015.36,59.2,0
"2019-10-13 03:53:15+00",6.8,6.8,,60.4,-268,136,20,1015.38,59,0
"2019-10-13 03:58:15+00",8.1,8.1,,60.5,-329,148,24,1015.35,58.8,0
"2019-10-13 04:03:15+00",7.6,7.6,,60.4,-319,118,20,1015.47,58.7,0
"2019-10-13 04:08:15+00",7.0,7.0,,60.2,-301,81,22,1015.33,58.8,0
"2019-10-13 04:13:15+00",8.0,8.0,,60,-353,75,20,1015.37,58.8,0
"2019-10-13 04:18:15+00",6.1,6.1,,60,-265,52,14,1015.26,58.7,0
"2019-10-13 04:23:15+00",6.2,6.2,,59.7,-270,23,18,1015.26,58.7,0
"2019-10-13 04:28:15+00",6.0,7.0,,59.7,-264,9,12,1015.2,58.5,0
"2019-10-13 04:33:15+00",7.3,7.3,,59.8,-320,2,16,1015.25,58.3,0
"2019-10-13 04:38:15+00",7.9,8.9,,59.8,-344,-4,16,1015.32,58.1,0
"2019-10-13 04:43:15+00",7.6,7.6,,59.8,-333,2,13,1015.3,58,0
"2019-10-13 04:48:15+00",8.0,8.0,,59.6,-354,17,15,1015.37,57.9,0
"2019-10-13 04:53:15+00",8.3,9.3,,59.5,-369,14,16,1015.36,57.8,0
"2019-10-13 04:58:15+00",8.5,9.5,,59.4,-376,36,21,1015.34,57.7,0
"2019-10-13 05:03:15+00",8.9,9.9,,59.3,-393,78,17,1015.4,57.7,0
"2019-10-13 05:08:15+00",8.8,9.8,,59.3,-381,102,26,1015.44,57.7,0
"2019-10-13 05:13:15+00",8.8,9.8,,59.2,-381,123,25,1015.49,57.8,0
"2019-10-13 05:18:15+00",9.8,10.8,,59.1,-411,162,26,1015.43,57.9,0
"2019-10-13 05:23:15+00",9.2,10.2,,59.1,-368,182,29,1015.43,57.8,0
"2019-10-13 05:28:15+00",9.4,10.4,,59.1,-388,173,24,1015.59,57.8,0
"2019-10-13 05:33:15+00",8.8,9.8,,59,-379,120,27,1015.73,57.8,0
"2019-10-13 05:38:15+00",9.8,10.8,,59,-402,180,21,1015.77,57.8,0
"2019-10-13 05:43:15+00",9.6,10.6,,58.8,-384,181,30,1015.81,57.7,0
"2019-10-13 05:48:15+00",10.0,11.0,,58.9,-395,192,23,1015.87,57.7,0
"2019-10-13 05:53:15+00",10.1,11.1,,58.9,-380,239,25,1015.79,57.7,0
"2019-10-13 05:58:15+00",8.1,9.1,,58.9,-306,176,25,1015.88,57.7,0
"2019-10-13 06:03:15+00",6.7,7.7,,58.8,-253,150,22,1015.89,57.7,0
"2019-10-13 06:08:15+00",7.2,8.2,,58.7,-268,178,20,1015.81,57.6,0
"2019-10-13 06:13:15+00",7.8,8.8,,58.6,-279,201,25,1015.92,57.6,0
"2019-10-13 06:18:15+00",8.6,10.6,,58.5,-298,249,23,1015.97,57.5,0
"2019-10-13 06:23:15+00",8.5,10.5,,58.5,-310,224,27,1015.92,57.5,0
"2019-10-13 06:28:15+00",9.9,10.9,,58.3,-352,264,22,1015.91,57.4,0
"2019-10-13 06:33:15+00",11.2,12.2,,58.2,-365,326,32,1015.92,57.3,0
"2019-10-13 06:38:15+00",9.2,10.2,,58,-298,267,32,1015.93,57.2,0
"2019-10-13 06:43:15+00",9.5,10.5,,57.8,-309,287,32,1015.96,57.1,0
"2019-10-13 06:48:15+00",9.6,10.6,,57.6,-312,298,37,1015.91,57.1,0
"2019-10-13 06:53:15+00",11.9,13.9,,57.6,-392,358,26,1015.93,56.9,0
"2019-10-13 06:58:15+00",11.7,13.7,,57.5,-398,344,33,1015.93,56.9,0
"2019-10-13 07:03:15+00",11.0,13.0,,57.4,-369,309,34,1015.97,56.8,0
"2019-10-13 07:08:15+00",11.4,12.4,,57.2,-370,354,34,1015.96,56.7,0
"2019-10-13 07:13:15+00",12.2,14.2,,57.1,-381,384,36,1015.94,56.6,0
"2019-10-13 07:18:15+00",12.8,15.8,,56.9,-374,427,27,1015.97,56.5,0
"2019-10-13 07:23:15+00",13.8,14.8,,56.8,-398,465,48,1015.99,56.3,0
"2019-10-13 07:28:15+00",12.1,14.1,,56.6,-355,407,26,1016.08,56.2,0
"2019-10-13 07:33:15+00",12.1,14.1,,56.5,-357,407,35,1016.11,56,0
"2019-10-13 07:38:15+00",13.9,14.9,,56.3,-354,507,31,1016.04,55.8,0
"2019-10-13 07:43:15+00",13.2,15.2,,56.2,-334,478,32,1016.04,55.7,0
"2019-10-13 07:48:15+00",12.6,14.6,,56.2,-281,475,25,1016.04,55.7,0
"2019-10-13 07:53:15+00",13.5,15.5,,56.2,-328,489,31,1016.08,55.7,0
"2019-10-13 07:58:15+00",13.1,16.1,,56.3,-344,478,27,1016.2,55.8,0
"2019-10-13 08:03:15+00",14.4,16.4,,56.4,-368,522,21,1016.23,55.9,0
"2019-10-13 08:08:15+00",13.8,16.8,,56.2,-305,536,40,1016.21,55.8,0
"2019-10-13 08:13:15+00",13.1,15.1,,55.8,-328,491,36,1016.34,55.5,0
"2019-10-13 08:18:15+00",12.3,14.3,,55.6,-320,443,25,1016.3,55.3,0
"2019-10-13 08:23:15+00",11.1,14.1,,55.5,-301,387,34,1016.4,55.2,0
"2019-10-13 08:28:15+00",12.7,14.7,,55.6,-321,469,21,1016.37,55.2,0
"2019-10-13 08:33:15+00",10.5,11.5,,55.5,-301,359,19,1016.45,55.3,0
"2019-10-13 08:38:15+00",10.4,12.4,,55.5,-293,352,36,1016.59,55.2,0
"2019-10-13 08:43:15+00",10.4,13.4,,55.5,-276,378,33,1016.61,55.1,0
"2019-10-13 08:48:15+00",13.7,15.7,,55.4,-344,498,29,1016.5,54.9,0
"2019-10-13 08:53:15+00",13.9,15.9,,55,-312,532,35,1016.41,54.6,0
"2019-10-13 08:58:15+00",11.7,14.7,,54.7,-269,450,36,1016.58,54.4,0
"2019-10-13 09:03:15+00",12.8,14.8,,54.5,-301,487,31,1016.71,54.2,0
"2019-10-13 09:08:15+00",11.3,13.3,,54.5,-296,417,45,1016.75,54,0
"2019-10-13 09:13:15+00",12.9,14.9,,54.4,-331,459,32,1016.8,53.9,0
"2019-10-13 09:18:15+00",12.0,13.0,,54.5,-353,400,45,1016.93,54,0
"2019-10-13 09:23:15+00",12.5,14.5,,54.6,-371,412,32,1016.89,54,0
"2019-10-13 09:28:15+00",11.5,13.5,,54.5,-407,333,43,1017.01,54.1,0
"2019-10-13 09:33:15+00",10.5,12.5,,54.4,-361,304,43,1017,54,0
"2019-10-13 09:38:15+00",11.9,14.9,,54.3,-376,379,53,1017.02,54,0
"2019-10-13 09:43:15+00",12.2,15.2,,54.2,-365,397,30,1017.1,53.9,0
"2019-10-13 09:48:15+00",12.8,13.8,,54.1,-392,412,35,1017.17,53.8,0
"2019-10-13 09:53:15+00",14.0,15.0,,54,-396,489,28,1017.1,53.7,0
"2019-10-13 09:58:15+00",14.0,16.0,,53.9,-415,470,37,1017.25,53.6,0
"2019-10-13 10:03:15+00",13.2,15.2,,53.9,-381,443,36,1017.32,53.6,0
"2019-10-13 10:08:15+00",13.3,15.3,,53.7,-344,468,55,1017.22,53.5,0
"2019-10-13 10:13:15+00",13.6,15.6,,53.5,-385,475,35,1017.38,53.3,0
"2019-10-13 10:18:15+00",13.5,14.5,,53.4,-337,485,24,1017.33,53.1,0
"2019-10-13 10:23:15+00",13.0,15.0,,53.1,-320,482,22,1017.36,52.8,0
"2019-10-13 10:28:15+00",11.0,14.0,,52.9,-269,409,27,1017.46,52.7,0
"2019-10-13 10:33:15+00",11.4,13.4,,52.7,-294,400,25,1017.61,52.4,0
"2019-10-13 10:38:15+00",11.6,12.6,,52.9,-330,399,26,1017.62,52.4,0
"2019-10-13 10:43:15+00",13.4,14.4,,53.1,-372,452,36,1017.67,52.5,0
"2019-10-13 10:48:15+00",12.1,14.1,,53.1,-303,439,39,1017.62,52.6,0
"2019-10-13 10:53:15+00",12.3,14.3,,52.8,-309,444,41,1017.7,52.5,0
"2019-10-13 10:58:15+00",11.7,13.7,,52.7,-334,409,41,1017.71,52.4,0
"2019-10-13 11:03:15+00",10.7,11.7,,52.5,-289,370,32,1017.74,52.3,0
"2019-10-13 11:08:15+00",12.8,14.8,,52.2,-293,482,32,1017.72,52.1,0
"2019-10-13 11:13:15+00",11.9,13.9,,52,-285,437,32,1017.78,51.8,0
"2019-10-13 11:18:15+00",11.9,13.9,,51.8,-280,442,14,1017.83,51.7,0
"2019-10-13 11:23:15+00",11.2,13.2,,51.7,-282,407,22,1017.94,51.6,0
"2019-10-13 11:28:15+00",11.6,13.6,,51.7,-283,422,54,1018.05,51.5,0
"2019-10-13 11:33:15+00",13.0,15.0,,51.7,-311,480,44,1018.14,51.5,0
"2019-10-13 11:38:15+00",11.4,13.4,,51.8,-279,415,46,1018.19,51.6,15.4
"2019-10-13 11:43:15+00",13.7,15.7,,51.7,-327,517,35,1018.13,51.7,20.9
"2019-10-13 11:48:15+00",11.4,13.4,,51.8,-219,450,34,1018.1,52,44.8
"2019-10-13 11:53:15+00",12.8,15.8,,51.9,-284,496,41,1018.2,52.3,24.2
"2019-10-13 11:58:15+00",13.2,14.2,,51.8,-324,491,35,1018.35,52.2,3.5
"2019-10-13 12:03:15+00",12.6,13.6,,51.7,-309,472,29,1018.4,52.2,19.7
"2019-10-13 12:08:15+00",11.3,12.3,,51.9,-290,412,27,1018.43,52.5,71.5
"2019-10-13 12:13:15+00",10.9,11.9,,52,-231,422,11,1018.37,52.9,91.2
"2019-10-13 12:18:15+00",10.2,11.2,,52.3,-224,384,22,1018.5,53.4,105.4
"2019-10-13 12:23:15+00",8.8,9.8,,52.9,-185,333,20,1018.59,54,129.4
"2019-10-13 12:28:15+00",7.2,9.2,,53.3,-155,274,34,1018.59,54.7,45.5
"2019-10-13 12:33:15+00",7.8,8.8,,53.5,-119,317,29,1018.6,55.1,131.7
"2019-10-13 12:38:15+00",7.6,9.6,,53.6,-100,315,35,1018.6,55.5,49.6
"2019-10-13 12:43:15+00",8.5,9.5,,53.6,-47,363,11,1018.5,55.6,144.7
"2019-10-13 12:48:15+00",8.1,11.1,,54,2,351,12,1018.44,55.9,169.6
"2019-10-13 12:53:15+00",8.5,9.5,,54.4,3,365,17,1018.6,56.2,55.3
"2019-10-13 12:58:15+00",11.3,12.3,,54.4,-69,487,7,1018.68,56.3,174.9
"2019-10-13 13:03:15+00",10.2,11.2,,54.9,-50,439,10,1018.64,57.3,188.3
"2019-10-13 13:08:15+00",10.6,11.6,,55.1,24,457,8,1018.56,58.1,138.7
"2019-10-13 13:13:15+00",11.0,12.0,,55.2,-22,471,17,1018.47,58.4,109.2
"2019-10-13 13:18:15+00",10.0,11.0,,55.4,-46,426,8,1018.68,58.5,106.2
"2019-10-13 13:23:15+00",9.4,10.4,,55.5,-159,382,27,1018.67,58.3,169
"2019-10-13 13:28:15+00",9.3,11.3,,55.6,-131,386,20,1018.57,58.5,192
"2019-10-13 13:33:15+00",6.9,7.9,,56.1,-68,281,36,1018.71,59,224.6
"2019-10-13 13:38:15+00",8.4,10.4,,56.5,8,358,2,1018.55,59.9,245.7
"2019-10-13 13:43:15+00",8.0,9.0,,56.9,72,326,-11,1018.51,60.6,275.7
"2019-10-13 13:48:15+00",6.9,7.9,,57.5,128,250,13,1018.59,61.2,229.7
"2019-10-13 13:53:15+00",8.3,9.3,,57.6,55,350,-10,1018.64,61.4,163.3
"2019-10-13 13:58:15+00",8.6,9.6,,57.6,56,354,4,1018.62,61.3,52
"2019-10-13 14:03:15+00",6.6,10.6,,57.5,18,294,9,1018.92,60.5,48.4
"2019-10-13 14:08:15+00",7.7,9.7,,57.6,-20,330,29,1019.02,60.7,247.6
"2019-10-13 14:13:15+00",8.7,9.7,,57.7,19,371,-2,1018.99,61.2,210.3
"2019-10-13 14:18:15+00",6.9,8.9,,58,66,271,22,1019.07,61.3,199.1
"2019-10-13 14:23:15+00",8.2,10.2,,58.4,57,337,-6,1019.17,61.4,139.4
"2019-10-13 14:28:15+00",7.9,8.9,,58.3,-7,336,1,1019.32,61.4,317.6
"2019-10-13 14:33:15+00",8.0,9.0,,58.5,-45,342,9,1019.2,61.8,112.9
"2019-10-13 14:38:15+00",7.6,8.6,,58.7,44,316,7,1019.25,61.8,123.1
"2019-10-13 14:43:15+00",6.8,8.8,,59,66,271,11,1019.18,61.8,100.9
"2019-10-13 14:48:15+00",8.3,9.3,,59.4,180,292,1,1019.01,61.6,141.2
"2019-10-13 14:53:15+00",6.8,8.8,,59.8,103,251,8,1019.04,61.8,96.1
"2019-10-13 14:58:15+00",8.5,9.5,,59.7,234,245,-2,1018.96,61.7,109.6
"2019-10-13 15:03:15+00",6.2,7.2,,60,156,196,9,1019.03,61.9,186.5
"2019-10-13 15:08:15+00",4.4,6.4,,60.3,98,127,27,1019.23,62.4,185.4
"2019-10-13 15:13:15+00",6.5,7.5,,60.6,157,202,28,1019.15,63,218.5
"2019-10-13 15:18:15+00",7.7,8.7,,60.5,233,218,-4,1019.01,63.3,147.5
"2019-10-13 15:23:15+00",8.3,10.3,,60.1,289,211,4,1018.87,62.7,111.3
"2019-10-13 15:28:15+00",7.8,9.8,,60.2,312,127,25,1018.8,62.3,95.6
"2019-10-13 15:33:15+00",8.8,9.8,,60.2,344,173,25,1018.78,62.4,331.1
"2019-10-13 15:38:15+00",7.9,9.9,,60.3,315,141,43,1018.74,63.3,371.6
"2019-10-13 15:43:15+00",10.0,13.0,,60.7,358,246,35,1018.66,64,402.9
"2019-10-13 15:48:15+00",10.3,11.3,,60.3,328,280,3,1018.77,63.9,199.5
"2019-10-13 15:53:15+00",11.3,13.3,,60.3,398,286,44,1018.67,63.6,221.1
"2019-10-13 15:58:15+00",12.5,13.5,,60.3,471,287,6,1018.65,63.5,390
"2019-10-13 16:03:15+00",11.3,13.3,,60.4,418,269,30,1018.72,63.9,386.7
"2019-10-13 16:08:15+00",11.4,13.4,,60.3,445,238,3,1018.7,63.9,221.3
"2019-10-13 16:13:15+00",11.0,13.0,,60.5,469,127,49,1018.7,64.3,252.9
"2019-10-13 16:18:15+00",13.7,15.7,,60.3,608,106,17,1018.56,64.6,459.4
"2019-10-13 16:23:15+00",12.8,14.8,,60.6,559,128,21,1018.73,64.9,185
"2019-10-13 16:28:15+00",12.2,13.2,,60.5,544,72,15,1018.76,64.6,324.1
"2019-10-13 16:33:15+00",10.9,13.9,,60.6,469,104,66,1018.63,64.8,255
"2019-10-13 16:38:15+00",12.8,13.8,,60.1,550,180,13,1018.53,64.6,207.7
"2019-10-13 16:43:15+00",11.2,13.2,,60.5,494,106,46,1018.55,64.4,179.1
"2019-10-13 16:48:15+00",11.3,13.3,,60.8,476,177,16,1018.62,64.8,330.3
"2019-10-13 16:53:15+00",10.7,12.7,,60.8,457,137,6,1018.75,65.1,398.5
"2019-10-13 16:58:15+00",12.3,14.3,,60.7,544,27,15,1018.59,65.8,420.2
"2019-10-13 17:03:15+00",11.3,13.3,,60.8,443,226,43,1018.54,65.7,232
"2019-10-13 17:08:15+00",9.9,11.9,,60.6,428,92,27,1018.38,65.3,327.9
"2019-10-13 17:13:15+00",12.8,15.8,,61,564,115,16,1018.18,65.5,291.3
"2019-10-13 17:18:15+00",10.7,12.7,,61,456,152,46,1018.32,65.6,310.6
"2019-10-13 17:23:15+00",12.1,14.1,,61,540,46,29,1018.37,65.2,152
"2019-10-13 17:28:15+00",11.5,14.5,,61.1,500,81,44,1018.28,64.7,206.3
"2019-10-13 17:33:15+00",11.0,13.0,,61,487,82,39,1018.41,64.6,115.3
"2019-10-13 17:38:15+00",11.4,12.4,,61,499,124,14,1018.26,64.3,142.5
"2019-10-13 17:43:15+00",9.8,11.8,,61.2,429,61,48,1018.23,64.5,169.1
"2019-10-13 17:48:15+00",10.7,11.7,,61.2,470,79,10,1018.11,64.2,144
"2019-10-13 17:53:15+00",9.5,11.5,,61.4,421,60,30,1018.06,64.4,133.6
"2019-10-13 17:58:15+00",9.7,10.7,,61.4,424,75,22,1018.14,64.5,91.6
"2019-10-13 18:03:15+00",9.0,10.0,,61.4,392,59,0,1018.18,64.3,75.1
"2019-10-13 18:08:15+00",8.9,11.9,,61.4,390,0,24,1018.09,64.2,106.8
"2019-10-13 18:13:15+00",8.3,10.3,,61.5,364,17,15,1017.97,64.3,118.4
"2019-10-13 18:18:15+00",8.3,9.3,,61.4,360,-38,-5,1017.84,64,120.6
"2019-10-13 18:23:15+00",9.6,10.6,,61.5,425,-32,-1,1017.73,64,114.4
"2019-10-13 18:28:15+00",9.1,11.1,,61.7,408,14,33,1017.9,64.5,215.8
"2019-10-13 18:33:15+00",7.4,10.4,,61.5,320,-49,12,1017.97,64.2,146.2
"2019-10-13 18:38:15+00",8.6,10.6,,61.5,375,51,-1,1017.85,64.3,115.9
"2019-10-13 18:43:15+00",8.2,10.2,,61.5,366,-13,4,1018.07,64.4,89.8
"2019-10-13 18:48:15+00",8.6,12.6,,61.6,345,-154,28,1017.95,64,106.6
"2019-10-13 18:53:15+00",8.9,11.9,,61.5,392,7,-1,1017.82,63.9,94.8
"2019-10-13 18:58:15+00",10.1,11.1,,61.4,445,66,8,1017.75,64,80.1
"2019-10-13 19:03:15+00",9.5,10.5,,61.5,419,-28,7,1017.74,63.5,56.2
"2019-10-13 19:08:15+00",8.9,9.9,,61.4,394,-14,18,1017.63,63.3,49.6
"2019-10-13 19:13:15+00",9.5,10.5,,61.5,426,-22,9,1017.53,63.3,56.5
"2019-10-13 19:18:15+00",9.5,10.5,,61.5,426,-12,6,1017.43,63.2,61.2
"2019-10-13 19:23:15+00",9.2,11.2,,61.7,409,7,8,1017.44,63.5,104.9
"2019-10-13 19:28:15+00",9.9,10.9,,61.8,440,-71,2,1017.47,63.6,137.8
"2019-10-13 19:33:15+00",10.8,11.8,,61.7,469,-87,8,1017.46,63.4,59
"2019-10-13 19:38:15+00",9.9,10.9,,61.6,445,-7,19,1017.53,63.2,79.3
"2019-10-13 19:43:15+00",8.3,10.3,,61.7,370,-25,21,1017.56,63.1,58.1
"2019-10-13 19:48:15+00",8.3,9.3,,61.5,365,11,12,1017.57,62.8,42.8
"2019-10-13 19:53:15+00",8.0,9.0,,61.4,349,-37,5,1017.56,62.8,4.2
"2019-10-13 19:58:15+00",8.3,9.3,,61.5,351,-102,4,1017.61,62.5,0
"2019-10-13 20:03:15+00",7.4,8.4,,61.5,302,-112,-11,1017.65,62.3,0.1
"2019-10-13 20:08:15+00",6.3,7.3,,61.4,246,-119,-5,1017.76,62.1,0
"2019-10-13 20:13:15+00",7.7,8.7,,61.4,309,-126,-9,1017.76,62,0
"2019-10-13 20:18:15+00",7.2,8.2,,61.4,301,-111,-5,1017.64,61.8,0
"2019-10-13 20:23:15+00",6.8,7.8,,61.4,208,-210,-8,1017.71,61.8,0
"2019-10-13 20:28:15+00",8.0,9.0,,61.3,338,-103,5,1017.44,61.6,0
"2019-10-13 20:33:15+00",8.2,9.2,,61,303,-191,-4,1017.47,61,0
"2019-10-13 20:38:15+00",8.6,9.6,,60.8,312,-205,3,1017.42,60.7,0.1
"2019-10-13 20:43:15+00",8.5,9.5,,60.6,352,-132,5,1017.23,60.5,0
"2019-10-13 20:48:15+00",6.3,7.3,,60.6,193,-205,8,1017.37,60.4,0
"2019-10-13 20:53:15+00",6.5,7.5,,60.6,185,-207,3,1017.46,60.4,0
"2019-10-13 20:58:15+00",9.2,11.2,,60.6,307,-267,5,1017.35,60.3,0
"2019-10-13 21:03:15+00",7.7,8.7,,60.5,192,-269,-3,1017.29,60.1,0
"2019-10-13 21:08:15+00",6.6,7.6,,60.5,135,-250,-3,1017.28,59.8,0
"2019-10-13 21:13:15+00",6.0,7.0,,60.4,205,-149,-3,1017.19,59.6,0
"2019-10-13 21:18:15+00",5.6,6.6,,60.2,211,-110,2,1017.18,59.5,5.4
"2019-10-13 21:23:15+00",8.3,9.3,,60.3,335,-145,-6,1016.98,59.7,7.4
"2019-10-13 21:28:15+00",7.5,9.5,,60.3,313,-96,9,1016.99,59.6,0
"2019-10-13 21:33:15+00",8.6,10.6,,60.4,354,-135,8,1016.99,59.7,0
"2019-10-13 21:38:15+00",8.2,9.2,,60.4,332,-119,2,1017.05,59.8,0
"2019-10-13 21:43:15+00",10.0,11.0,,60.5,419,-131,2,1016.93,59.9,0
"2019-10-13 21:48:15+00",8.4,9.4,,60.5,344,-119,3,1017.03,59.9,0
"2019-10-13 21:53:15+00",7.4,8.4,,60.5,323,-67,10,1017.03,59.9,0
"2019-10-13 21:58:15+00",10.0,11.0,,60.5,403,-157,0,1016.9,59.9,0
"2019-10-13 22:03:15+00",9.4,10.4,,60.7,361,-208,3,1016.91,59.9,0
"2019-10-13 22:08:15+00",9.4,10.4,,60.7,342,-240,0,1017,59.9,0
"2019-10-13 22:13:15+00",8.1,10.1,,60.8,312,-177,14,1017.04,59.9,0
"2019-10-13 22:18:15+00",7.4,8.4,,60.8,301,-118,-4,1017.15,60,0
"2019-10-13 22:23:15+00",7.0,8.0,,60.8,259,-166,-1,1017.27,60,0
"2019-10-13 22:28:15+00",9.7,10.7,,60.8,272,-330,-5,1017.09,60.1,0
"2019-10-13 22:33:15+00",10.2,11.2,,60.8,369,-256,-1,1016.78,60.1,0
"2019-10-13 22:38:15+00",7.6,8.6,,60.9,292,-171,4,1016.95,60,0
"2019-10-13 22:43:15+00",11.2,12.2,,60.9,391,-284,-6,1016.76,60.1,0
"2019-10-13 22:48:15+00",8.7,9.7,,60.9,318,-195,8,1016.59,60.1,0
"2019-10-13 22:53:15+00",8.5,9.5,,60.9,317,-194,5,1016.6,60.1,0
"2019-10-13 22:58:15+00",9.6,11.6,,61,309,-286,-3,1016.58,60.1,0
"2019-10-13 23:03:15+00",8.6,9.6,,61,287,-232,8,1016.52,60.1,0
"2019-10-13 23:08:15+00",6.4,7.4,,61,233,-155,1,1016.56,60.2,0
"2019-10-13 23:13:15+00",8.7,9.7,,61.1,341,-154,10,1016.57,60.2,0
"2019-10-13 23:18:15+00",8.3,9.3,,61.1,292,-209,6,1016.54,60.3,0
"2019-10-13 23:23:15+00",8.8,9.8,,61.2,325,-193,10,1016.42,60.3,0
"2019-10-13 23:28:15+00",10.9,11.9,,61.2,373,-289,1,1016.52,60.4,0
"2019-10-13 23:33:15+00",8.7,10.7,,61.3,327,-204,9,1016.54,60.5,0
"2019-10-13 23:38:15+00",8.8,10.8,,61.3,307,-232,2,1016.69,60.6,0
"2019-10-13 23:43:15+00",7.5,8.5,,61.3,234,-212,8,1017.03,60.7,0
"2019-10-13 23:48:15+00",7.8,8.8,,61.3,268,-195,-13,1017.07,60.7,0
"2019-10-13 23:53:15+00",7.6,8.6,,60.9,261,-210,-1,1017.08,60.5,0
"2019-10-13 23:58:15+00",10.0,11.0,,60.7,405,-173,1,1016.91,60.2,0
